FW2020 Weather Reports


Display with metric or nautical units.
time (UTC)temp
F
wind
direction
speed
MPH
gust
MPH
rain 1hr
in
rain 24hr
in
rain mn
in
humidity
%
barometer
mb
20260505021218 52 101 5.0 5.0 0.00 0.00 0.00 79 1013.4
20260505020242 0 115 5.0 6.0 0.00 0.00 0.00 1013.4
20260505015218 53 171 5.0 7.0 0.00 0.00 0.00 77 1013.4
20260505014227 53 146 5.0 6.0 0.00 0.00 0.00 76 1013.2
20260505013229 0 149 4.0 5.0 0.00 0.00 0.00 1013.0
20260505012231 53 235 8.0 9.0 0.00 0.00 0.00 75 1013.0
20260505011216 54 173 5.0 8.0 0.00 0.00 0.00 74 1012.9
20260505010218 0 180 6.0 8.0 0.00 0.00 0.00 1012.7
20260505005220 54 113 4.0 6.0 0.00 0.00 0.00 73 1012.3
20260505004222 55 248 5.0 5.0 0.00 0.00 0.00 71 1012.2
20260505003225 55 158 3.0 4.0 0.00 0.00 0.00 69 1011.9
20260505002249 55 45 4.0 6.0 0.00 0.00 0.00 68 1011.9
20260505001231 56 338 4.0 5.0 0.00 0.00 0.00 66 1011.7
20260505000233 56 111 9.0 11.0 0.00 0.00 0.00 64 1011.7
20260504235217 57 225 6.0 6.0 0.00 0.00 0.00 62 1011.5
20260504234220 0 143 11.0 13.0 0.00 0.00 0.00 1011.4
20260504233245 58 113 10.0 10.0 0.00 0.00 0.00 56 1011.3
20260504232225 59 113 8.0 11.0 0.00 0.00 0.00 53 1011.3
20260504231221 0 158 10.0 10.0 0.00 0.00 0.00 1011.2
20260504230218 62 225 10.0 10.0 0.00 0.00 0.00 48 1010.9
20260504225232 63 180 8.0 12.0 0.00 0.00 0.00 46 1011.0
20260504224216 64 255 7.0 8.0 0.00 0.00 0.00 45 1010.9
20260504223218 64 248 8.0 9.0 0.00 0.00 0.00 44 1010.8
20260504222241 65 90 8.0 9.0 0.00 0.00 0.00 43 1010.8
20260504221344 67 146 7.0 9.0 0.00 0.00 0.00 40 1010.6
20260504220226 68 270 11.0 14.0 0.00 0.00 0.00 41 1010.7
20260504215229 67 263 10.0 10.0 0.00 0.00 0.00 41 1010.8
20260504214231 68 260 10.0 12.0 0.00 0.00 0.00 40 1010.7
20260504213235 68 293 12.0 13.0 0.00 0.00 0.00 41 1010.6
20260504212217 69 81 6.0 10.0 0.00 0.00 0.00 40 1010.6
20260504211219 68 138 12.0 13.0 0.00 0.00 0.00 40 1010.7
20260504210222 70 270 7.0 8.0 0.00 0.00 0.00 39 1010.6
20260504205244 72 346 7.0 7.0 0.00 0.00 0.00 37 1010.5
20260504204227 71 144 5.0 7.0 0.00 0.00 0.00 39 1010.5
20260504203244 71 243 7.0 8.0 0.00 0.00 0.00 38 1010.4
20260504202221 71 163 8.0 9.0 0.00 0.00 0.00 38 1010.4
20260504201218 71 180 7.0 8.0 0.00 0.00 0.00 37 1010.3
20260504200220 72 270 7.0 9.0 0.00 0.00 0.00 37 1010.4
20260504195243 71 68 8.0 9.0 0.00 0.00 0.00 37 1010.4
20260504194225 71 158 9.0 11.0 0.00 0.00 0.00 36 1010.5
20260504193228 70 155 10.0 11.0 0.00 0.00 0.00 35 1010.5
20260504192230 71 9.0 10.0 0.00 0.00 0.00 35 1010.5
20260504191252 71 135 9.0 10.0 0.00 0.00 0.00 34 1010.5
20260504190217 70 248 8.0 9.0 0.00 0.00 0.00 33 1010.8
20260504185219 71 248 10.0 11.0 0.00 0.00 0.00 32 1010.8
20260504184222 71 23 11.0 16.0 0.00 0.00 0.00 31 1010.8
20260504183224 70 10.0 10.0 0.00 0.00 0.00 31 1011.0
20260504182228 71 180 10.0 12.0 0.00 0.00 0.00 32 1011.0
20260504181250 71 11.0 13.0 0.00 0.00 0.00 30 1011.2
20260504180251 72 278 7.0 8.0 0.00 0.00 0.00 33 1011.2
20260504175216 72 216 7.0 9.0 0.00 0.00 0.00 31 1011.2
20260504174240 72 174 16.0 19.0 0.00 0.00 0.00 30 1011.2
20260504173221 71 23 6.0 7.0 0.00 0.00 0.00 31 1011.2
20260504172218 71 90 9.0 11.0 0.00 0.00 0.00 31 1011.2
20260504171226 71 225 10.0 11.0 0.00 0.00 0.00 31 1011.3
20260504170250 71 225 8.0 9.0 0.00 0.00 0.00 33 1011.5
20260504160245 70 146 12.0 15.0 0.00 0.00 0.00 31 1011.9
20260504150222 68 158 9.0 13.0 0.00 0.00 0.00 35 1012.4
20260504141238 67 132 6.0 9.0 0.00 0.00 0.00 39 1013.2
20260504140219 66 54 5.0 6.0 0.00 0.00 0.00 39 1013.2
20260504130217 62 200 4.0 5.0 0.00 0.00 0.00 44 1013.4
20260504120224 53 225 6.0 7.0 0.00 0.00 0.00 53 1013.7
20260504110247 43 248 1.0 2.0 0.00 0.00 0.00 73 1013.7
20260504100222 38 0.0 0.0 0.00 0.00 0.00 77 1013.4
20260504081232 40 0.0 0.0 0.00 0.00 0.00 75 1013.0
20260504080216 40 0.0 0.0 0.00 0.00 0.00 75 1013.2
20260504070232 37 0.0 0.0 0.00 0.00 0.00 81 1012.9
20260504050226 0 0.0 0.0 0.00 0.00 0.00 1013.0
20260504045228 36 0.0 0.0 0.00 0.00 0.00 80 1013.2
20260504044232 36 0.0 0.0 0.00 0.00 0.00 80 1013.2
20260504043216 36 0.0 0.0 0.00 0.00 0.00 78 1013.0
20260504042217 36 0.0 0.0 0.00 0.00 0.00 78 1013.0
20260504041220 36 0.0 0.0 0.00 0.00 0.00 78 1012.9
20260504040223 36 0.0 0.0 0.00 0.00 0.00 77 1012.9
20260504035225 37 0.0 0.0 0.00 0.00 0.00 78 1012.9
20260504034228 37 0.0 0.0 0.00 0.00 0.00 78 1012.7
20260504033224 37 0.0 0.0 0.00 0.00 0.00 77 1012.7
20260504032215 37 0.0 0.0 0.00 0.00 0.00 77 1012.7
20260504031218 37 0.0 0.0 0.00 0.00 0.00 77 1012.5
20260504030241 37 0.0 0.0 0.00 0.00 0.00 77 1012.4
20260504025224 37 0.0 0.0 0.00 0.00 0.00 77 1012.4
20260504024225 0 0.0 0.0 0.00 0.00 0.00 1012.4
20260504023227 37 0.0 0.0 0.00 0.00 0.00 74 1012.3
20260504022230 37 0.0 0.0 0.00 0.00 0.00 74 1012.3